Mount Carmel, IL

4:39 AM CDT on June 27, 2017 (GMT -0500)
Mount Carmel Municipal

Weather History for KAJG - May, 2013

Change the Weather History Date:

Tuesday, May 14, 2013

  Actual Average (KLWV) Record (KLWV)
Temperature  
Mean Temperature 68 °F -  
Max Temperature 86 °F 74 °F 89 °F (1998)
Min Temperature 51 °F 53 °F 44 °F (1993)
Cooling Degree Days 4    
Growing Degree Days 18 (Base 50)    
Moisture  
Dew Point 50 °F    
Average Humidity 50    
Maximum Humidity 71    
Minimum Humidity 33    
Precipitation  
Precipitation 0.00 in - - ()
Sea Level Pressure  
Sea Level Pressure 29.94 in    
Wind  
Wind Speed 10 mph (SSW)    
Max Wind Speed 23 mph    
Max Gust Speed 30 mph    
Visibility 10 miles    
Events      
Averages and records for this station are not official NWS values.
T = Trace of Precipitation, MM = Missing Value Source: NWS Daily Summary

Daily Weather History Graph

Daily Weather History Graph

Search for Another Location

Airport or City:

Trip Planner

Search our weather history database for the weather conditions in past years. The results will help you decide how hot, cold, wet, or windy it might be!

Date:

Astronomy

May. 14, 2013 Rise Set
Actual Time 5:39 AM CDT 7:55 PM CDT
Civil Twilight 5:09 AM CDT 8:25 PM CDT
Nautical Twilight 4:33 AM CDT 9:01 PM CDT
Astronomical Twilight 3:53 AM CDT 9:42 PM CDT
Moon 9:19 AM CDT (5/14) 11:42 PM CDT (5/14)
Length of Visible Light 15h 15m
Length of Day
14h 15m
Waxing Crescent, 19% of the Moon is Illuminated
May 14
Waxing Crescent
May 17
First Quarter
May 24
Full
May 31
Last Quarter
Jun 8
New

Hourly Weather History & Observations

Time (CDT) Temp. Heat Index Dew Point Humidity Pressure Visibility Wind Dir Wind Speed Gust Speed Precip Events Conditions
12:15 AM 53.6 °F - 41.0 °F 62% 30.11 in 10.0 mi SSE 5.8 mph - N/A   Clear
12:35 AM 53.6 °F - 41.0 °F 62% 30.10 in 10.0 mi SSE 4.6 mph - N/A   Clear
12:55 AM 55.4 °F - 37.4 °F 51% 30.10 in 10.0 mi SSE 6.9 mph - N/A   Clear
1:15 AM 53.6 °F - 41.0 °F 62% 30.10 in 10.0 mi SSE 3.5 mph - N/A   Clear
1:35 AM 53.6 °F - 41.0 °F 62% 30.09 in 10.0 mi SE 4.6 mph - N/A   Scattered Clouds
1:55 AM 51.8 °F - 42.8 °F 71% 30.09 in 10.0 mi SSE 5.8 mph - N/A   Scattered Clouds
2:15 AM 51.8 °F - 42.8 °F 71% 30.08 in 10.0 mi SSE 5.8 mph - N/A   Clear
2:35 AM 51.8 °F - 39.2 °F 62% 30.07 in 10.0 mi SSE 6.9 mph - N/A   Clear
2:55 AM 53.6 °F - 37.4 °F 54% 30.07 in 10.0 mi SSE 8.1 mph - N/A   Clear
3:15 AM 53.6 °F - 39.2 °F 58% 30.06 in 10.0 mi SE 4.6 mph - N/A   Clear
3:35 AM 51.8 °F - 39.2 °F 62% 30.06 in 10.0 mi SSE 4.6 mph - N/A   Clear
3:55 AM 51.8 °F - 41.0 °F 67% 30.05 in 10.0 mi SE 5.8 mph - N/A   Clear
4:15 AM 53.6 °F - 39.2 °F 58% 30.05 in 10.0 mi SSE 9.2 mph - N/A   Clear
4:35 AM 53.6 °F - 37.4 °F 54% 30.04 in 10.0 mi SSE 5.8 mph - N/A   Clear
4:55 AM 53.6 °F - 37.4 °F 54% 30.04 in 10.0 mi South 6.9 mph - N/A   Clear
5:15 AM 53.6 °F - 39.2 °F 58% 30.04 in 10.0 mi South 6.9 mph - N/A   Clear
5:35 AM 53.6 °F - 39.2 °F 58% 30.04 in 10.0 mi SSE 5.8 mph - N/A   Clear
5:55 AM 53.6 °F - 39.2 °F 58% 30.03 in 10.0 mi SSE 5.8 mph - N/A   Clear
6:15 AM 53.6 °F - 41.0 °F 62% 30.03 in 10.0 mi South 6.9 mph - N/A   Clear
6:35 AM 55.4 °F - 41.0 °F 58% 30.03 in 10.0 mi South 8.1 mph - N/A   Clear
6:55 AM 55.4 °F - 41.0 °F 58% 30.03 in 10.0 mi South 5.8 mph - N/A   Clear
7:15 AM 59.0 °F - 42.8 °F 55% 30.02 in 10.0 mi South 6.9 mph - N/A   Clear
7:35 AM 59.0 °F - 42.8 °F 55% 30.02 in 10.0 mi South 10.4 mph - N/A   Clear
7:55 AM 60.8 °F - 44.6 °F 55% 30.01 in 10.0 mi South 10.4 mph - N/A   Clear
8:15 AM 62.6 °F - 46.4 °F 55% 30.01 in 10.0 mi South 9.2 mph - N/A   Clear
8:35 AM 64.4 °F - 46.4 °F 52% 30.00 in 10.0 mi SSW 12.7 mph 19.6 mph N/A   Clear
8:55 AM 64.4 °F - 48.2 °F 56% 29.99 in 10.0 mi South 15.0 mph - N/A   Clear
9:15 AM 66.2 °F - 48.2 °F 52% 29.98 in 10.0 mi SSW 15.0 mph 19.6 mph N/A   Clear
9:35 AM 68.0 °F - 50.0 °F 52% 29.97 in 10.0 mi South 12.7 mph - N/A   Clear
9:55 AM 69.8 °F - 51.8 °F 53% 29.97 in 10.0 mi SSW 12.7 mph 16.1 mph N/A   Clear
10:15 AM 69.8 °F - 51.8 °F 53% 29.96 in 10.0 mi SSW 10.4 mph - N/A   Clear
10:35 AM 71.6 °F - 51.8 °F 50% 29.96 in 10.0 mi SSW 12.7 mph - N/A   Clear
10:55 AM 73.4 °F - 53.6 °F 50% 29.96 in 10.0 mi SSW 12.7 mph - N/A   Clear
11:15 AM 75.2 °F - 53.6 °F 47% 29.95 in 10.0 mi SSW 13.8 mph - N/A   Clear
11:35 AM 77.0 °F - 55.4 °F 47% 29.94 in 10.0 mi South 16.1 mph - N/A   Clear
11:55 AM 77.0 °F - 55.4 °F 47% 29.93 in 10.0 mi SSW 15.0 mph 19.6 mph N/A   Clear
12:15 PM 78.8 °F - 55.4 °F 44% 29.93 in 10.0 mi South 15.0 mph 20.7 mph N/A   Clear
12:35 PM 78.8 °F - 55.4 °F 44% 29.92 in 10.0 mi SSW 18.4 mph 23.0 mph N/A   Clear
12:55 PM 80.6 °F 80.5 °F 55.4 °F 42% 29.90 in 10.0 mi South 20.7 mph - N/A   Clear
1:15 PM 80.6 °F 80.8 °F 57.2 °F 45% 29.89 in 10.0 mi SSW 17.3 mph 25.3 mph N/A   Clear
1:35 PM 82.4 °F 82.0 °F 57.2 °F 42% 29.89 in 10.0 mi SSW 15.0 mph - N/A   Clear
1:55 PM 82.4 °F 82.0 °F 57.2 °F 42% 29.88 in 10.0 mi SSW 17.3 mph - N/A   Clear
2:15 PM 82.4 °F 82.5 °F 59.0 °F 45% 29.88 in 10.0 mi SSW 19.6 mph 25.3 mph N/A   Clear
2:35 PM 84.2 °F 83.0 °F 55.4 °F 37% 29.87 in 10.0 mi SW 23.0 mph - N/A   Clear
2:55 PM 84.2 °F 83.0 °F 55.4 °F 37% 29.87 in 10.0 mi SSW 18.4 mph 24.2 mph N/A   Clear
3:15 PM 86.0 °F 84.5 °F 55.4 °F 35% 29.87 in 10.0 mi SSW 19.6 mph 24.2 mph N/A   Clear
3:35 PM 86.0 °F 84.5 °F 55.4 °F 35% 29.86 in 10.0 mi SW 20.7 mph 29.9 mph N/A   Clear
3:55 PM 86.0 °F 84.5 °F 55.4 °F 35% 29.85 in 10.0 mi SW 21.9 mph 28.8 mph N/A   Clear
4:15 PM 86.0 °F 84.5 °F 55.4 °F 35% 29.85 in 10.0 mi SW 21.9 mph 27.6 mph N/A   Clear
4:35 PM 86.0 °F 84.5 °F 55.4 °F 35% 29.85 in 10.0 mi SW 19.6 mph 28.8 mph N/A   Clear
4:55 PM 86.0 °F 84.2 °F 53.6 °F 33% 29.85 in 10.0 mi WSW 23.0 mph - N/A   Clear
5:15 PM 86.0 °F 84.5 °F 55.4 °F 35% 29.84 in 10.0 mi SW 20.7 mph 27.6 mph N/A   Clear
5:35 PM 86.0 °F 84.5 °F 55.4 °F 35% 29.84 in 10.0 mi SW 17.3 mph 25.3 mph N/A   Clear
5:55 PM 86.0 °F 84.5 °F 55.4 °F 35% 29.84 in 7.0 mi SW 17.3 mph 25.3 mph N/A   Clear
6:15 PM 86.0 °F 84.5 °F 55.4 °F 35% 29.84 in 10.0 mi SW 13.8 mph 24.2 mph N/A   Clear
6:35 PM 84.2 °F 83.0 °F 55.4 °F 37% 29.84 in 10.0 mi SW 12.7 mph 18.4 mph N/A   Clear
6:55 PM 82.4 °F 82.0 °F 57.2 °F 42% 29.83 in 10.0 mi SW 12.7 mph - N/A   Clear
7:15 PM 82.4 °F 81.7 °F 55.4 °F 39% 29.83 in 10.0 mi SW 11.5 mph - N/A   Clear
7:35 PM 80.6 °F 80.5 °F 55.4 °F 42% 29.83 in 10.0 mi SW 10.4 mph 18.4 mph N/A   Clear
7:55 PM 78.8 °F - 57.2 °F 47% 29.84 in 10.0 mi SSW 8.1 mph - N/A   Clear
8:15 PM 78.8 °F - 57.2 °F 47% 29.84 in 10.0 mi SSW 10.4 mph - N/A   Clear
8:35 PM 77.0 °F - 57.2 °F 50% 29.84 in 10.0 mi SSW 8.1 mph - N/A   Clear
8:55 PM 77.0 °F - 59.0 °F 54% 29.84 in 10.0 mi SSW 11.5 mph - N/A   Clear
9:15 PM 77.0 °F - 59.0 °F 54% 29.85 in 10.0 mi SSW 10.4 mph - N/A   Clear
9:35 PM 77.0 °F - 59.0 °F 54% 29.85 in 10.0 mi SW 11.5 mph - N/A   Clear
9:55 PM 77.0 °F - 59.0 °F 54% 29.86 in 10.0 mi SW 12.7 mph - N/A   Clear
10:15 PM 77.0 °F - 59.0 °F 54% 29.86 in 10.0 mi SW 11.5 mph - N/A   Clear
10:35 PM 77.0 °F - 59.0 °F 54% 29.86 in 10.0 mi SW 12.7 mph - N/A   Clear
11:15 PM 75.2 °F - 59.0 °F 57% 29.86 in 10.0 mi SW 13.8 mph 18.4 mph N/A   Clear
11:35 PM 75.2 °F - 59.0 °F 57% 29.87 in 10.0 mi SW 11.5 mph 18.4 mph N/A   Clear
11:55 PM 75.2 °F - 59.0 °F 57% 29.87 in 10.0 mi SW 11.5 mph - N/A   Clear